Погода в Степном

Россия / Челябинская область     53°52′35″N   59°04′54″E
темп.,
°C
ветер,
м/с
пор.,
м/с
влажн.,
%
обл.,
%
осадки,
мм/ч
давл.,
гПа
погр.,
м
19 апреля, пн
пн1923:000всв8115396 0.0 10271055
02:00−2всв71051100 0.0 1029972
05:00−4всв61047100 0.0 1031916
08:00−4в794186 0.0 1032948
11:00−1в7832100 0.0 10321222
14:00+1в782799 0.0 10311481
17:00+1всв773078 0.0 10311561
20:00−1всв694130 0.0 1032568
20 апреля, вт
вт2023:00−3в59480 0.0 1034634
02:00−3всв37490 0.0 1034599
05:00−4св23530 0.0 1035124
08:00−2св34420 0.0 1036599
11:00+1в33330 0.0 10351079
14:00+4вюв11305 0.0 10331212
17:00+5зюз11300 0.0 10321138
20:00+3ююз22420 0.0 103120
21 апреля, ср
ср2123:00+1зсз11500 0.0 103310
02:000сз11580 0.0 103310
05:00−1зсз11600 0.0 103310
08:00+2з11500 0.0 1033165
11:00+6ююв113725 0.0 1032721
14:00+9ю22329 0.0 10311121
17:00+10ю333072 0.0 10301272
20:00+7ю224379 0.0 103225
22 апреля, чт
чт2223:00+4юз2254100 0.0 103323
02:00+3ююз2260100 0.0 103328
05:00+2ююз2265100 0.0 103426
08:00+4ю3659100 0.0 1035253
11:00+7ю6842100 0.0 1034929
14:00+9ю6937100 0.0 10341143
17:00+9ю5844100 0.0 10331114
20:00+7ю2353100 0.0 103345
23 апреля, пт
пт2323:00+6ю225899 0.0 103314
02:00+4ююз2267100 0.0 103310
05:00+4ююв1168100 0.0 103310
08:00+6ю386698 0.0 1032487
11:00+9ю61053100 0.0 10311373
14:00+10ю7851100 0.0 10291541
17:00+10ю5757100 0.0 10281323
20:00+10ю4955100 0.0 1027326